Time,TemperatureF,DewpointF,PressureIn,WindDirection,WindDirectionDegrees,WindSpeedMPH,WindSpeedGustMPH,Humidity,HourlyPrecipIn,Conditions,Clouds,dailyrainin,SolarRadiationWatts/m^2,SoftwareType,DateUTC
2013-01-12 00:00:00,45.6,42.8,29.95,SSE,163,1.0,10.0,90,0.00,,,0.18,0,WxPro DR1,2013-01-12 05:00:00,
2013-01-12 00:01:00,45.6,42.8,29.94,SW,217,10.0,13.0,90,0.00,,,0.00,0,WxPro DR1,2013-01-12 05:01:00,
2013-01-12 00:06:00,45.6,42.8,29.94,South,190,4.0,14.0,90,0.00,,,0.00,0,WxPro DR1,2013-01-12 05:06:00,
2013-01-12 00:11:00,45.6,42.8,29.94,South,176,6.0,14.0,90,0.00,,,0.00,0,WxPro DR1,2013-01-12 05:11:00,
2013-01-12 00:16:00,45.5,42.8,29.94,South,190,2.0,14.0,90,0.00,,,0.00,0,WxPro DR1,2013-01-12 05:16:00,
2013-01-12 00:21:00,45.5,43.0,29.94,South,189,4.0,14.0,91,0.00,,,0.00,0,WxPro DR1,2013-01-12 05:21:00,
2013-01-12 00:26:00,45.5,43.0,29.95,South,181,2.0,15.0,91,0.00,,,0.00,0,WxPro DR1,2013-01-12 05:26:00,
2013-01-12 00:31:00,45.5,43.0,29.95,SSE,156,1.0,15.0,91,0.00,,,0.00,0,WxPro DR1,2013-01-12 05:31:00,
2013-01-12 00:36:00,45.6,43.1,29.95,SSE,168,2.0,15.0,91,0.00,,,0.00,0,WxPro DR1,2013-01-12 05:36:00,
2013-01-12 00:41:00,45.6,43.1,29.95,SSE,159,5.0,14.0,91,0.00,,,0.00,0,WxPro DR1,2013-01-12 05:41:00,
2013-01-12 00:46:00,45.6,43.1,29.95,South,179,8.0,11.0,91,0.00,,,0.00,0,WxPro DR1,2013-01-12 05:46:00,
2013-01-12 00:51:00,45.7,43.2,29.95,South,186,2.0,10.0,91,0.00,,,0.00,0,WxPro DR1,2013-01-12 05:51:00,
2013-01-12 00:56:00,45.8,43.3,29.95,SSE,165,4.0,12.0,91,0.00,,,0.00,0,WxPro DR1,2013-01-12 05:56:00,
2013-01-12 01:01:00,45.8,43.3,29.95,South,174,3.0,12.0,91,0.00,,,0.00,0,WxPro DR1,2013-01-12 06:01:00,
2013-01-12 01:06:00,45.7,43.5,29.95,South,174,3.0,12.0,92,0.00,,,0.00,0,WxPro DR1,2013-01-12 06:06:00,
2013-01-12 01:11:00,45.9,43.7,29.95,South,186,4.0,12.0,92,0.00,,,0.00,0,WxPro DR1,2013-01-12 06:11:00,
2013-01-12 01:16:00,46.0,43.6,29.95,South,180,4.0,11.0,91,0.00,,,0.00,0,WxPro DR1,2013-01-12 06:16:00,
2013-01-12 01:21:00,46.1,43.6,29.96,South,171,4.0,11.0,91,0.00,,,0.00,0,WxPro DR1,2013-01-12 06:21:00,
2013-01-12 01:26:00,46.2,44.0,29.96,SSE,167,4.0,11.0,92,0.00,,,0.00,0,WxPro DR1,2013-01-12 06:26:00,
2013-01-12 01:31:00,46.3,44.1,29.96,South,178,2.0,12.0,92,0.00,,,0.00,0,WxPro DR1,2013-01-12 06:31:00,
2013-01-12 01:36:00,46.3,44.1,29.95,South,174,5.0,12.0,92,0.00,,,0.00,0,WxPro DR1,2013-01-12 06:36:00,
2013-01-12 01:41:00,46.4,44.2,29.95,SSE,159,3.0,11.0,92,0.00,,,0.00,0,WxPro DR1,2013-01-12 06:41:00,
2013-01-12 01:46:00,46.4,44.2,29.95,SSE,165,1.0,11.0,92,0.00,,,0.00,0,WxPro DR1,2013-01-12 06:46:00,
2013-01-12 01:51:00,46.5,44.3,29.96,South,179,1.0,12.0,92,0.00,,,0.00,0,WxPro DR1,2013-01-12 06:51:00,
2013-01-12 01:56:00,46.5,44.3,29.97,South,178,5.0,12.0,92,0.00,,,0.00,0,WxPro DR1,2013-01-12 06:56:00,
2013-01-12 02:01:00,46.6,44.4,29.96,SSE,164,0.0,12.0,92,0.00,,,0.00,0,WxPro DR1,2013-01-12 07:01:00,
2013-01-12 02:06:00,46.5,44.3,29.97,South,176,1.0,12.0,92,0.00,,,0.00,0,WxPro DR1,2013-01-12 07:06:00,
2013-01-12 02:11:00,46.5,44.3,29.97,South,171,4.0,13.0,92,0.00,,,0.00,0,WxPro DR1,2013-01-12 07:11:00,
2013-01-12 02:16:00,46.6,44.4,29.98,South,176,4.0,13.0,92,0.00,,,0.00,0,WxPro DR1,2013-01-12 07:16:00,
2013-01-12 02:21:00,46.6,44.4,29.97,SSE,160,4.0,12.0,92,0.00,,,0.00,0,WxPro DR1,2013-01-12 07:21:00,
2013-01-12 02:26:00,46.7,44.5,29.97,South,176,5.0,12.0,92,0.00,,,0.00,0,WxPro DR1,2013-01-12 07:26:00,
2013-01-12 02:31:00,46.8,44.6,29.98,SSE,164,2.0,11.0,92,0.00,,,0.00,0,WxPro DR1,2013-01-12 07:31:00,
2013-01-12 02:36:00,46.7,44.5,29.98,South,171,5.0,14.0,92,0.00,,,0.00,0,WxPro DR1,2013-01-12 07:36:00,
2013-01-12 02:41:00,46.7,44.5,29.98,South,169,3.0,14.0,92,0.00,,,0.00,0,WxPro DR1,2013-01-12 07:41:00,
2013-01-12 02:46:00,46.5,44.3,29.98,South,179,4.0,9.0,92,0.00,,,0.00,0,WxPro DR1,2013-01-12 07:46:00,
2013-01-12 02:51:00,46.5,44.6,29.99,SSE,166,2.0,10.0,93,0.00,,,0.00,0,WxPro DR1,2013-01-12 07:51:00,
2013-01-12 02:56:00,46.5,44.6,29.99,SSE,163,3.0,10.0,93,0.00,,,0.00,0,WxPro DR1,2013-01-12 07:56:00,
2013-01-12 03:01:00,46.5,44.6,29.99,South,183,2.0,12.0,93,0.00,,,0.00,0,WxPro DR1,2013-01-12 08:01:00,
2013-01-12 03:06:00,46.5,44.6,29.99,South,174,3.0,12.0,93,0.00,,,0.00,0,WxPro DR1,2013-01-12 08:06:00,
2013-01-12 03:11:00,46.6,44.7,29.98,SSW,211,5.0,11.0,93,0.00,,,0.00,0,WxPro DR1,2013-01-12 08:11:00,
2013-01-12 03:16:00,46.5,44.6,29.98,South,170,4.0,11.0,93,0.00,,,0.00,0,WxPro DR1,2013-01-12 08:16:00,
2013-01-12 03:21:00,46.6,44.7,29.98,SSE,159,5.0,7.0,93,0.00,,,0.00,0,WxPro DR1,2013-01-12 08:21:00,
2013-01-12 03:26:00,46.7,44.7,29.97,SSE,156,2.0,6.0,93,0.00,,,0.00,0,WxPro DR1,2013-01-12 08:26:00,
2013-01-12 03:31:00,46.7,44.7,29.97,SSE,160,2.0,6.0,93,0.00,,,0.00,0,WxPro DR1,2013-01-12 08:31:00,
2013-01-12 03:36:00,46.6,44.7,29.98,South,169,3.0,6.0,93,0.00,,,0.00,0,WxPro DR1,2013-01-12 08:36:00,
2013-01-12 03:41:00,46.6,44.7,29.97,South,173,2.0,6.0,93,0.00,,,0.00,0,WxPro DR1,2013-01-12 08:41:00,
2013-01-12 03:46:00,46.5,44.6,29.97,South,182,3.0,8.0,93,0.00,,,0.00,0,WxPro DR1,2013-01-12 08:46:00,
2013-01-12 03:51:00,46.6,45.0,29.97,SSE,163,1.0,8.0,94,0.00,,,0.00,0,WxPro DR1,2013-01-12 08:51:00,
2013-01-12 03:56:00,46.7,45.0,29.97,South,184,3.0,6.0,94,0.00,,,0.00,0,WxPro DR1,2013-01-12 08:56:00,
2013-01-12 04:01:00,46.7,45.1,29.98,SSE,166,1.0,6.0,94,0.00,,,0.00,0,WxPro DR1,2013-01-12 09:01:00,
2013-01-12 04:06:00,46.8,45.2,29.97,SSE,159,4.0,5.0,94,0.00,,,0.00,0,WxPro DR1,2013-01-12 09:06:00,
2013-01-12 04:11:00,46.9,45.2,29.97,SSE,161,1.0,5.0,94,0.00,,,0.00,0,WxPro DR1,2013-01-12 09:11:00,
2013-01-12 04:16:00,46.8,45.2,29.98,SSE,166,6.0,6.0,94,0.00,,,0.00,0,WxPro DR1,2013-01-12 09:16:00,
2013-01-12 04:21:00,46.8,45.2,29.98,SSE,159,2.0,6.0,94,0.00,,,0.00,0,WxPro DR1,2013-01-12 09:21:00,
2013-01-12 04:26:00,46.8,45.0,29.97,SSE,155,0.0,6.0,93,0.00,,,0.00,0,WxPro DR1,2013-01-12 09:26:00,
2013-01-12 04:31:00,46.8,45.2,29.97,SSE,162,4.0,6.0,94,0.00,,,0.00,0,WxPro DR1,2013-01-12 09:31:00,
2013-01-12 04:36:00,46.8,45.2,29.97,South,169,1.0,7.0,94,0.00,,,0.00,0,WxPro DR1,2013-01-12 09:36:00,
2013-01-12 04:41:00,46.8,45.2,29.96,South,176,3.0,7.0,94,0.00,,,0.00,0,WxPro DR1,2013-01-12 09:41:00,
2013-01-12 04:46:00,46.8,45.2,29.96,SSE,165,5.0,7.0,94,0.00,,,0.00,0,WxPro DR1,2013-01-12 09:46:00,
2013-01-12 04:51:00,46.9,45.0,29.96,SSE,159,0.0,10.0,93,0.00,,,0.00,0,WxPro DR1,2013-01-12 09:51:00,
2013-01-12 04:56:00,46.9,45.0,29.96,South,176,2.0,10.0,93,0.00,,,0.00,0,WxPro DR1,2013-01-12 09:56:00,
2013-01-12 05:01:00,47.0,45.1,29.96,SSE,163,3.0,10.0,93,0.00,,,0.00,0,WxPro DR1,2013-01-12 10:01:00,
2013-01-12 05:06:00,46.9,45.0,29.97,South,169,4.0,6.0,93,0.00,,,0.00,0,WxPro DR1,2013-01-12 10:06:00,
2013-01-12 05:11:00,46.9,45.0,29.97,SSE,163,2.0,10.0,93,0.00,,,0.00,0,WxPro DR1,2013-01-12 10:11:00,
2013-01-12 05:16:00,46.8,44.9,29.97,SSE,159,0.0,10.0,93,0.00,,,0.00,0,WxPro DR1,2013-01-12 10:16:00,
2013-01-12 05:21:00,46.6,44.7,29.96,SSE,151,2.0,6.0,93,0.00,,,0.00,0,WxPro DR1,2013-01-12 10:21:00,
2013-01-12 05:26:00,46.3,44.4,29.97,SSE,149,0.0,5.0,93,0.00,,,0.00,0,WxPro DR1,2013-01-12 10:26:00,
2013-01-12 05:31:00,46.0,44.1,29.97,South,186,2.0,7.0,93,0.00,,,0.00,0,WxPro DR1,2013-01-12 10:31:00,
2013-01-12 05:36:00,45.8,43.8,29.97,SSE,154,2.0,7.0,93,0.00,,,0.00,0,WxPro DR1,2013-01-12 10:36:00,
2013-01-12 05:41:00,45.6,43.9,29.97,SSE,157,2.0,5.0,94,0.00,,,0.00,0,WxPro DR1,2013-01-12 10:41:00,
2013-01-12 05:46:00,45.5,43.9,29.98,South,169,1.0,5.0,94,0.00,,,0.00,0,WxPro DR1,2013-01-12 10:46:00,
2013-01-12 05:51:00,45.5,43.9,29.98,SSE,165,0.0,5.0,94,0.00,,,0.00,0,WxPro DR1,2013-01-12 10:51:00,
2013-01-12 05:56:00,45.6,43.9,29.97,SSE,154,3.0,4.0,94,0.00,,,0.00,0,WxPro DR1,2013-01-12 10:56:00,
2013-01-12 06:01:00,45.7,44.1,29.98,SSE,153,3.0,5.0,94,0.00,,,0.00,0,WxPro DR1,2013-01-12 11:01:00,
2013-01-12 06:06:00,45.9,44.2,29.98,SSE,164,3.0,6.0,94,0.00,,,0.00,0,WxPro DR1,2013-01-12 11:06:00,
2013-01-12 06:11:00,45.9,44.3,29.98,SSE,151,2.0,6.0,94,0.00,,,0.00,0,WxPro DR1,2013-01-12 11:11:00,
2013-01-12 06:16:00,45.9,44.2,29.98,SE,142,0.0,7.0,94,0.00,,,0.00,0,WxPro DR1,2013-01-12 11:16:00,
2013-01-12 06:21:00,45.8,43.9,29.98,SE,143,1.0,7.0,93,0.00,,,0.00,0,WxPro DR1,2013-01-12 11:21:00,
2013-01-12 06:26:00,45.7,43.8,29.98,SE,143,0.0,4.0,93,0.00,,,0.00,0,WxPro DR1,2013-01-12 11:26:00,
2013-01-12 06:31:00,45.5,43.9,29.99,SSE,167,3.0,6.0,94,0.00,,,0.00,0,WxPro DR1,2013-01-12 11:31:00,
2013-01-12 06:36:00,45.3,43.7,29.99,SE,141,2.0,6.0,94,0.00,,,0.00,0,WxPro DR1,2013-01-12 11:36:00,
2013-01-12 06:41:00,45.2,43.6,29.99,SE,142,0.0,6.0,94,0.00,,,0.00,0,WxPro DR1,2013-01-12 11:41:00,
2013-01-12 06:46:00,45.2,43.6,29.99,SE,142,1.0,6.0,94,0.00,,,0.00,0,WxPro DR1,2013-01-12 11:46:00,
2013-01-12 06:51:00,45.0,43.4,29.99,SE,141,0.0,4.0,94,0.00,,,0.00,0,WxPro DR1,2013-01-12 11:51:00,
2013-01-12 06:56:00,45.0,43.4,29.99,SE,142,0.0,3.0,94,0.00,,,0.00,0,WxPro DR1,2013-01-12 11:56:00,
2013-01-12 07:01:00,45.0,43.4,29.99,SE,146,3.0,5.0,94,0.00,,,0.00,0,WxPro DR1,2013-01-12 12:01:00,
2013-01-12 07:06:00,45.0,43.3,29.99,South,169,2.0,5.0,94,0.00,,,0.00,0,WxPro DR1,2013-01-12 12:06:00,
2013-01-12 07:11:00,44.9,43.3,29.99,SSE,165,2.0,4.0,94,0.00,,,0.00,0,WxPro DR1,2013-01-12 12:11:00,
2013-01-12 07:16:00,44.8,43.1,29.99,SSE,155,1.0,4.0,94,0.00,,,0.00,0,WxPro DR1,2013-01-12 12:16:00,
2013-01-12 07:21:00,44.9,43.6,29.99,SSE,153,2.0,5.0,95,0.00,,,0.00,0,WxPro DR1,2013-01-12 12:21:00,
2013-01-12 07:26:00,45.1,43.7,29.99,SSE,153,1.0,5.0,95,0.00,,,0.00,0,WxPro DR1,2013-01-12 12:26:00,
2013-01-12 07:31:00,45.0,43.7,29.98,SSE,153,0.0,4.0,95,0.00,,,0.00,0,WxPro DR1,2013-01-12 12:31:00,
2013-01-12 07:36:00,45.0,43.5,29.99,SSE,154,1.0,4.0,95,0.00,,,0.00,0,WxPro DR1,2013-01-12 12:36:00,
2013-01-12 07:41:00,44.9,43.3,29.99,SSE,153,3.0,3.0,94,0.00,,,0.00,0,WxPro DR1,2013-01-12 12:41:00,
2013-01-12 07:46:00,45.0,43.6,29.98,SSE,153,2.0,4.0,95,0.00,,,0.00,0,WxPro DR1,2013-01-12 12:46:00,
2013-01-12 07:51:00,45.0,43.7,29.98,SSE,151,0.0,4.0,95,0.00,,,0.00,7,WxPro DR1,2013-01-12 12:51:00,
2013-01-12 07:56:00,45.3,44.0,29.99,South,173,3.0,5.0,95,0.00,,,0.00,12,WxPro DR1,2013-01-12 12:56:00,
2013-01-12 08:01:00,45.5,44.2,29.99,SSE,160,0.0,5.0,95,0.00,,,0.00,16,WxPro DR1,2013-01-12 13:01:00,
2013-01-12 08:06:00,45.6,44.0,29.99,SSE,166,3.0,6.0,94,0.00,,,0.00,19,WxPro DR1,2013-01-12 13:06:00,
2013-01-12 08:11:00,45.6,44.0,29.99,SSE,153,3.0,6.0,94,0.00,,,0.00,28,WxPro DR1,2013-01-12 13:11:00,
2013-01-12 08:16:00,45.7,44.0,29.99,SSE,155,3.0,5.0,94,0.00,,,0.00,35,WxPro DR1,2013-01-12 13:16:00,
2013-01-12 08:21:00,45.8,44.2,29.99,SSE,151,3.0,7.0,94,0.00,,,0.00,37,WxPro DR1,2013-01-12 13:21:00,
2013-01-12 08:26:00,45.9,44.3,29.99,SSW,194,6.0,8.0,94,0.00,,,0.00,40,WxPro DR1,2013-01-12 13:26:00,
2013-01-12 08:31:00,46.1,44.4,30.00,SE,144,3.0,8.0,94,0.00,,,0.00,53,WxPro DR1,2013-01-12 13:31:00,
2013-01-12 08:36:00,46.3,44.7,29.99,SSE,161,4.0,7.0,94,0.00,,,0.00,60,WxPro DR1,2013-01-12 13:36:00,
2013-01-12 08:41:00,46.5,44.8,29.97,SSE,163,3.0,6.0,94,0.00,,,0.00,60,WxPro DR1,2013-01-12 13:41:00,
2013-01-12 08:46:00,46.5,44.9,29.98,SSE,156,2.0,5.0,94,0.00,,,0.00,58,WxPro DR1,2013-01-12 13:46:00,
2013-01-12 08:52:00,46.7,45.0,29.97,SSE,163,1.0,5.0,94,0.00,,,0.00,65,WxPro DR1,2013-01-12 13:52:00,
2013-01-12 08:57:00,46.8,45.2,29.98,South,174,2.0,6.0,94,0.00,,,0.00,74,WxPro DR1,2013-01-12 13:57:00,
2013-01-12 09:02:00,47.0,45.1,29.98,SSE,168,6.0,7.0,93,0.00,,,0.00,81,WxPro DR1,2013-01-12 14:02:00,
2013-01-12 09:07:00,47.2,45.3,29.97,SSE,159,3.0,7.0,93,0.00,,,0.00,77,WxPro DR1,2013-01-12 14:07:00,
2013-01-12 09:12:00,47.2,45.3,29.97,South,171,3.0,7.0,93,0.00,,,0.00,86,WxPro DR1,2013-01-12 14:12:00,
2013-01-12 09:17:00,47.4,45.5,29.97,SSE,165,4.0,8.0,93,0.00,,,0.00,95,WxPro DR1,2013-01-12 14:17:00,
2013-01-12 09:22:00,47.7,45.7,29.97,SSW,195,4.0,12.0,93,0.00,,,0.00,98,WxPro DR1,2013-01-12 14:22:00,
2013-01-12 09:27:00,47.9,45.7,29.98,SSE,154,3.0,12.0,92,0.00,,,0.00,107,WxPro DR1,2013-01-12 14:27:00,
2013-01-12 09:32:00,48.3,46.1,29.98,South,183,1.0,10.0,92,0.00,,,0.00,127,WxPro DR1,2013-01-12 14:32:00,
2013-01-12 09:37:00,48.7,46.4,29.97,SSE,168,2.0,10.0,92,0.00,,,0.00,127,WxPro DR1,2013-01-12 14:37:00,
2013-01-12 09:42:00,49.0,46.4,29.97,South,174,1.0,7.0,91,0.00,,,0.00,134,WxPro DR1,2013-01-12 14:42:00,
2013-01-12 09:47:00,49.3,46.8,29.98,South,179,1.0,6.0,91,0.00,,,0.00,113,WxPro DR1,2013-01-12 14:47:00,
2013-01-12 09:52:00,49.6,46.8,29.98,SSE,164,4.0,6.0,90,0.00,,,0.00,113,WxPro DR1,2013-01-12 14:52:00,
2013-01-12 09:57:00,49.8,47.0,29.97,South,176,6.0,11.0,90,0.00,,,0.00,114,WxPro DR1,2013-01-12 14:57:00,
2013-01-12 10:02:00,50.0,46.9,29.97,South,178,3.0,11.0,89,0.00,,,0.00,125,WxPro DR1,2013-01-12 15:02:00,
2013-01-12 10:07:00,50.3,47.2,29.97,South,171,8.0,16.0,89,0.00,,,0.00,211,WxPro DR1,2013-01-12 15:07:00,
2013-01-12 10:12:00,51.0,47.5,29.97,SSE,156,2.0,16.0,88,0.00,,,0.00,178,WxPro DR1,2013-01-12 15:12:00,
2013-01-12 10:17:00,51.5,48.0,29.97,South,180,10.0,11.0,88,0.00,,,0.00,171,WxPro DR1,2013-01-12 15:17:00,
2013-01-12 10:22:00,51.7,47.9,29.97,SSE,150,4.0,16.0,87,0.00,,,0.00,169,WxPro DR1,2013-01-12 15:22:00,
2013-01-12 10:27:00,51.7,48.0,29.98,SSE,167,10.0,16.0,87,0.00,,,0.00,160,WxPro DR1,2013-01-12 15:27:00,
2013-01-12 10:32:00,51.8,48.1,29.98,SSE,162,3.0,13.0,87,0.00,,,0.00,155,WxPro DR1,2013-01-12 15:32:00,
2013-01-12 10:37:00,51.9,48.2,29.98,South,188,5.0,13.0,87,0.00,,,0.00,153,WxPro DR1,2013-01-12 15:37:00,
2013-01-12 10:42:00,52.0,48.3,29.98,SSE,159,5.0,13.0,87,0.00,,,0.00,146,WxPro DR1,2013-01-12 15:42:00,
2013-01-12 10:47:00,52.1,48.3,29.98,South,180,2.0,12.0,87,0.00,,,0.00,125,WxPro DR1,2013-01-12 15:47:00,
2013-01-12 10:52:00,52.2,48.4,29.98,SSE,165,6.0,12.0,87,0.00,,,0.00,130,WxPro DR1,2013-01-12 15:52:00,
2013-01-12 10:57:00,52.2,48.5,29.97,SSW,192,4.0,12.0,87,0.00,,,0.00,139,WxPro DR1,2013-01-12 15:57:00,
2013-01-12 11:02:00,52.3,48.5,29.98,SSE,165,1.0,12.0,87,0.00,,,0.00,148,WxPro DR1,2013-01-12 16:02:00,
2013-01-12 11:07:00,52.5,48.7,29.97,SSE,164,3.0,11.0,87,0.00,,,0.00,165,WxPro DR1,2013-01-12 16:07:00,
2013-01-12 11:12:00,52.8,49.0,29.97,South,186,8.0,11.0,87,0.00,,,0.00,172,WxPro DR1,2013-01-12 16:12:00,
2013-01-12 11:17:00,53.0,48.9,29.96,South,188,5.0,12.0,86,0.00,,,0.00,193,WxPro DR1,2013-01-12 16:17:00,
2013-01-12 11:22:00,53.2,49.5,29.96,South,172,7.0,12.0,87,0.00,,,0.00,285,WxPro DR1,2013-01-12 16:22:00,
2013-01-12 11:27:00,53.6,49.5,29.96,South,183,3.0,15.0,86,0.00,,,0.00,260,WxPro DR1,2013-01-12 16:27:00,
2013-01-12 11:32:00,54.0,49.9,29.96,South,172,4.0,15.0,86,0.00,,,0.00,213,WxPro DR1,2013-01-12 16:32:00,
2013-01-12 11:37:00,54.2,49.8,29.95,SSW,194,4.0,10.0,85,0.00,,,0.00,179,WxPro DR1,2013-01-12 16:37:00,
2013-01-12 11:42:00,54.2,50.0,29.95,SSE,163,4.0,10.0,86,0.00,,,0.00,185,WxPro DR1,2013-01-12 16:42:00,
2013-01-12 11:47:00,54.2,49.9,29.95,South,187,1.0,10.0,85,0.00,,,0.00,193,WxPro DR1,2013-01-12 16:47:00,
2013-01-12 11:52:00,54.3,50.2,29.95,SSE,165,5.0,10.0,86,0.00,,,0.00,190,WxPro DR1,2013-01-12 16:52:00,
2013-01-12 11:57:00,54.4,50.0,29.95,SSE,163,3.0,9.0,85,0.00,,,0.00,206,WxPro DR1,2013-01-12 16:57:00,
2013-01-12 12:02:00,54.6,50.2,29.95,SSE,161,3.0,12.0,85,0.00,,,0.00,172,WxPro DR1,2013-01-12 17:02:00,
2013-01-12 12:07:00,54.6,50.2,29.94,SSE,157,4.0,14.0,85,0.00,,,0.00,195,WxPro DR1,2013-01-12 17:07:00,
2013-01-12 12:12:00,54.7,50.2,29.94,SSE,167,2.0,14.0,85,0.00,,,0.00,213,WxPro DR1,2013-01-12 17:12:00,
2013-01-12 12:17:00,54.9,50.4,29.94,SSE,163,1.0,9.0,85,0.00,,,0.00,207,WxPro DR1,2013-01-12 17:17:00,
2013-01-12 12:22:00,55.0,50.5,29.95,SE,140,0.0,7.0,85,0.00,,,0.00,179,WxPro DR1,2013-01-12 17:22:00,
2013-01-12 12:27:00,55.1,50.7,29.95,South,183,1.0,7.0,85,0.00,,,0.00,190,WxPro DR1,2013-01-12 17:27:00,
2013-01-12 12:32:00,55.3,50.8,29.96,South,185,2.0,6.0,85,0.00,,,0.00,206,WxPro DR1,2013-01-12 17:32:00,
2013-01-12 12:37:00,55.4,50.6,29.95,South,184,4.0,9.0,84,0.00,,,0.00,220,WxPro DR1,2013-01-12 17:37:00,
2013-01-12 12:42:00,55.6,50.8,29.95,South,171,0.0,9.0,84,0.00,,,0.00,332,WxPro DR1,2013-01-12 17:42:00,
2013-01-12 12:47:00,56.0,51.1,29.95,SSE,156,2.0,7.0,84,0.00,,,0.00,218,WxPro DR1,2013-01-12 17:47:00,
2013-01-12 12:52:00,56.3,51.2,29.95,SSE,153,4.0,7.0,83,0.00,,,0.00,243,WxPro DR1,2013-01-12 17:52:00,
2013-01-12 12:57:00,56.6,51.5,29.95,SSE,160,2.0,7.0,83,0.00,,,0.00,244,WxPro DR1,2013-01-12 17:57:00,
2013-01-12 13:02:00,56.7,51.3,29.95,SSE,151,3.0,9.0,82,0.00,,,0.00,214,WxPro DR1,2013-01-12 18:02:00,
2013-01-12 13:07:00,56.8,51.4,29.95,South,169,1.0,9.0,82,0.00,,,0.00,220,WxPro DR1,2013-01-12 18:07:00,
2013-01-12 13:12:00,57.0,51.5,29.94,South,182,0.0,8.0,82,0.00,,,0.00,206,WxPro DR1,2013-01-12 18:12:00,
2013-01-12 13:17:00,57.1,51.6,29.94,SSE,165,0.0,10.0,82,0.00,,,0.00,172,WxPro DR1,2013-01-12 18:17:00,
2013-01-12 13:22:00,57.2,51.7,29.94,SSE,164,2.0,10.0,82,0.00,,,0.00,141,WxPro DR1,2013-01-12 18:22:00,
2013-01-12 13:27:00,57.3,51.8,29.95,SSE,162,1.0,7.0,82,0.00,,,0.00,137,WxPro DR1,2013-01-12 18:27:00,
2013-01-12 13:32:00,57.4,51.6,29.94,South,177,2.0,7.0,81,0.00,,,0.00,139,WxPro DR1,2013-01-12 18:32:00,
2013-01-12 13:37:00,57.4,51.6,29.95,South,187,6.0,11.0,81,0.00,,,0.00,178,WxPro DR1,2013-01-12 18:37:00,
2013-01-12 13:42:00,57.6,51.9,29.95,SSE,163,3.0,11.0,81,0.00,,,0.00,209,WxPro DR1,2013-01-12 18:42:00,
2013-01-12 13:47:00,57.8,52.1,29.95,SSE,157,2.0,10.0,81,0.00,,,0.00,165,WxPro DR1,2013-01-12 18:47:00,
2013-01-12 13:52:00,58.0,52.2,29.94,SSE,165,2.0,7.0,81,0.00,,,0.00,148,WxPro DR1,2013-01-12 18:52:00,
2013-01-12 13:57:00,58.0,52.2,29.95,South,186,4.0,7.0,81,0.00,,,0.00,160,WxPro DR1,2013-01-12 18:57:00,
2013-01-12 14:02:00,58.0,52.1,29.94,SE,144,5.0,11.0,81,0.00,,,0.00,165,WxPro DR1,2013-01-12 19:02:00,
2013-01-12 14:07:00,58.2,52.0,29.94,South,182,4.0,11.0,80,0.00,,,0.00,156,WxPro DR1,2013-01-12 19:07:00,
2013-01-12 14:12:00,58.2,52.1,29.94,SSE,160,2.0,10.0,80,0.00,,,0.00,176,WxPro DR1,2013-01-12 19:12:00,
2013-01-12 14:17:00,58.4,52.2,29.93,SSW,202,7.0,9.0,80,0.00,,,0.00,171,WxPro DR1,2013-01-12 19:17:00,
2013-01-12 14:22:00,58.6,52.1,29.93,South,184,6.0,9.0,79,0.00,,,0.00,185,WxPro DR1,2013-01-12 19:22:00,
2013-01-12 14:27:00,58.7,52.2,29.94,SE,138,3.0,10.0,79,0.00,,,0.00,165,WxPro DR1,2013-01-12 19:27:00,
2013-01-12 14:32:00,58.7,52.2,29.94,SSE,167,4.0,12.0,79,0.00,,,0.00,135,WxPro DR1,2013-01-12 19:32:00,
2013-01-12 14:37:00,58.7,52.2,29.94,South,182,4.0,12.0,79,0.00,,,0.00,137,WxPro DR1,2013-01-12 19:37:00,
2013-01-12 14:42:00,58.6,52.2,29.94,SSE,160,2.0,9.0,79,0.00,,,0.00,130,WxPro DR1,2013-01-12 19:42:00,
2013-01-12 14:47:00,58.5,52.0,29.94,South,188,4.0,9.0,79,0.00,,,0.00,116,WxPro DR1,2013-01-12 19:47:00,
2013-01-12 14:52:00,58.4,52.3,29.94,SE,144,4.0,9.0,80,0.00,,,0.00,111,WxPro DR1,2013-01-12 19:52:00,
2013-01-12 14:57:00,58.3,52.2,29.95,South,178,4.0,5.0,80,0.00,,,0.00,130,WxPro DR1,2013-01-12 19:57:00,
2013-01-12 15:02:00,58.2,52.1,29.94,South,178,4.0,7.0,80,0.00,,,0.00,128,WxPro DR1,2013-01-12 20:02:00,
2013-01-12 15:07:00,58.4,52.1,29.95,South,171,2.0,8.0,80,0.00,,,0.00,123,WxPro DR1,2013-01-12 20:07:00,
2013-01-12 15:12:00,58.3,52.0,29.95,South,188,3.0,10.0,79,0.00,,,0.00,105,WxPro DR1,2013-01-12 20:12:00,
2013-01-12 15:17:00,58.2,52.1,29.95,South,188,0.0,10.0,80,0.00,,,0.00,97,WxPro DR1,2013-01-12 20:17:00,
2013-01-12 15:22:00,58.2,52.0,29.95,South,178,3.0,10.0,80,0.00,,,0.00,105,WxPro DR1,2013-01-12 20:22:00,
2013-01-12 15:27:00,58.1,52.0,29.95,South,182,5.0,10.0,80,0.00,,,0.00,97,WxPro DR1,2013-01-12 20:27:00,
2013-01-12 15:32:00,58.1,51.9,29.95,SE,142,3.0,14.0,80,0.00,,,0.00,95,WxPro DR1,2013-01-12 20:32:00,
2013-01-12 15:37:00,58.2,52.1,29.95,SSE,163,1.0,14.0,80,0.00,,,0.00,104,WxPro DR1,2013-01-12 20:37:00,
2013-01-12 15:42:00,58.2,52.1,29.95,South,180,1.0,7.0,80,0.00,,,0.00,88,WxPro DR1,2013-01-12 20:42:00,
2013-01-12 15:47:00,58.1,52.0,29.95,SSW,198,2.0,11.0,80,0.00,,,0.00,84,WxPro DR1,2013-01-12 20:47:00,
2013-01-12 15:52:00,58.0,51.9,29.95,South,174,1.0,11.0,80,0.00,,,0.00,88,WxPro DR1,2013-01-12 20:52:00,
2013-01-12 15:57:00,57.9,51.8,29.95,South,173,3.0,7.0,80,0.00,,,0.00,72,WxPro DR1,2013-01-12 20:57:00,
2013-01-12 16:02:00,57.9,51.7,29.95,SSE,157,0.0,9.0,80,0.00,,,0.00,56,WxPro DR1,2013-01-12 21:02:00,
2013-01-12 16:07:00,57.8,52.0,29.95,South,184,3.0,9.0,81,0.00,,,0.00,35,WxPro DR1,2013-01-12 21:07:00,
2013-01-12 16:12:00,57.7,51.9,29.95,South,174,1.0,7.0,81,0.00,,,0.00,26,WxPro DR1,2013-01-12 21:12:00,
2013-01-12 16:17:00,57.5,51.8,29.96,South,182,2.0,7.0,81,0.00,,,0.00,26,WxPro DR1,2013-01-12 21:17:00,
2013-01-12 16:22:00,57.4,51.6,29.95,SSE,160,4.0,5.0,81,0.00,,,0.00,23,WxPro DR1,2013-01-12 21:22:00,
2013-01-12 16:27:00,57.3,51.6,29.95,South,176,0.0,6.0,81,0.00,,,0.00,18,WxPro DR1,2013-01-12 21:27:00,
2013-01-12 16:32:00,57.3,51.5,29.95,South,175,2.0,6.0,81,0.00,,,0.00,16,WxPro DR1,2013-01-12 21:32:00,
2013-01-12 16:37:00,57.2,51.7,29.95,South,173,2.0,6.0,82,0.00,,,0.00,12,WxPro DR1,2013-01-12 21:37:00,
2013-01-12 16:42:00,57.1,51.7,29.95,South,184,3.0,9.0,82,0.00,,,0.00,9,WxPro DR1,2013-01-12 21:42:00,
2013-01-12 16:47:00,57.0,51.6,29.96,SSW,201,2.0,9.0,82,0.00,,,0.00,7,WxPro DR1,2013-01-12 21:47:00,
2013-01-12 16:52:00,56.9,51.5,29.96,SSE,165,0.0,6.0,82,0.00,,,0.00,0,WxPro DR1,2013-01-12 21:52:00,
2013-01-12 16:57:00,56.8,51.4,29.96,South,190,3.0,6.0,82,0.00,,,0.00,0,WxPro DR1,2013-01-12 21:57:00,
2013-01-12 17:02:00,56.6,51.2,29.96,South,179,0.0,6.0,82,0.00,,,0.00,0,WxPro DR1,2013-01-12 22:02:00,
2013-01-12 17:07:00,56.5,51.0,29.96,SSW,207,0.0,7.0,82,0.00,,,0.00,0,WxPro DR1,2013-01-12 22:07:00,
2013-01-12 17:12:00,56.2,51.1,29.96,South,171,3.0,7.0,83,0.00,,,0.00,0,WxPro DR1,2013-01-12 22:12:00,
2013-01-12 17:17:00,56.0,50.9,29.96,South,176,2.0,9.0,83,0.00,,,0.00,0,WxPro DR1,2013-01-12 22:17:00,
2013-01-12 17:22:00,55.9,50.8,29.96,South,186,2.0,9.0,83,0.00,,,0.00,0,WxPro DR1,2013-01-12 22:22:00,
2013-01-12 17:27:00,55.9,50.8,29.96,South,191,3.0,6.0,83,0.00,,,0.00,0,WxPro DR1,2013-01-12 22:27:00,
2013-01-12 17:32:00,55.7,50.6,29.96,South,169,1.0,6.0,83,0.00,,,0.00,0,WxPro DR1,2013-01-12 22:32:00,
2013-01-12 17:37:00,55.6,50.5,29.96,SSE,157,1.0,5.0,83,0.00,,,0.00,0,WxPro DR1,2013-01-12 22:37:00,
2013-01-12 17:42:00,55.5,50.4,29.96,South,182,3.0,9.0,83,0.00,,,0.00,0,WxPro DR1,2013-01-12 22:42:00,
2013-01-12 17:47:00,55.4,50.4,29.96,South,171,4.0,9.0,83,0.00,,,0.00,0,WxPro DR1,2013-01-12 22:47:00,
2013-01-12 17:52:00,55.4,50.6,29.97,South,185,2.0,9.0,84,0.00,,,0.00,0,WxPro DR1,2013-01-12 22:52:00,
2013-01-12 17:57:00,55.2,50.4,29.97,South,187,3.0,9.0,84,0.00,,,0.00,0,WxPro DR1,2013-01-12 22:57:00,
2013-01-12 18:02:00,55.0,50.3,29.97,South,182,0.0,9.0,84,0.00,,,0.00,0,WxPro DR1,2013-01-12 23:02:00,
2013-01-12 18:07:00,54.9,50.2,29.97,South,176,1.0,7.0,84,0.00,,,0.00,0,WxPro DR1,2013-01-12 23:07:00,
2013-01-12 18:12:00,54.9,50.1,29.96,South,179,2.0,8.0,84,0.00,,,0.00,0,WxPro DR1,2013-01-12 23:12:00,
2013-01-12 18:17:00,54.8,50.0,29.96,South,177,3.0,8.0,84,0.00,,,0.00,0,WxPro DR1,2013-01-12 23:17:00,
2013-01-12 18:22:00,54.6,49.9,29.96,South,190,9.0,10.0,84,0.00,,,0.00,0,WxPro DR1,2013-01-12 23:22:00,
2013-01-12 18:27:00,54.7,50.0,29.97,South,182,0.0,10.0,84,0.00,,,0.00,0,WxPro DR1,2013-01-12 23:27:00,
2013-01-12 18:32:00,54.6,49.9,29.97,South,182,0.0,10.0,84,0.00,,,0.00,0,WxPro DR1,2013-01-12 23:32:00,
2013-01-12 18:37:00,54.4,49.7,29.97,SSE,161,0.0,6.0,84,0.00,,,0.00,0,WxPro DR1,2013-01-12 23:37:00,
2013-01-12 18:42:00,54.3,49.9,29.97,South,174,6.0,9.0,85,0.00,,,0.00,0,WxPro DR1,2013-01-12 23:42:00,
2013-01-12 18:47:00,54.4,50.0,29.97,SSE,164,4.0,9.0,85,0.00,,,0.00,0,WxPro DR1,2013-01-12 23:47:00,
2013-01-12 18:52:00,54.5,49.7,29.97,South,188,0.0,7.0,84,0.00,,,0.00,0,WxPro DR1,2013-01-12 23:52:00,
2013-01-12 18:57:00,54.3,49.9,29.97,SSE,159,5.0,11.0,85,0.00,,,0.00,0,WxPro DR1,2013-01-12 23:57:00,
2013-01-12 19:02:00,54.4,49.7,29.97,SSE,156,4.0,11.0,84,0.00,,,0.00,0,WxPro DR1,2013-01-13 00:02:00,
2013-01-12 19:07:00,54.4,49.8,29.97,South,179,4.0,13.0,84,0.00,,,0.00,0,WxPro DR1,2013-01-13 00:07:00,
2013-01-12 19:12:00,54.5,49.7,29.98,South,174,1.0,13.0,84,0.00,,,0.00,0,WxPro DR1,2013-01-13 00:12:00,
2013-01-12 19:17:00,54.4,50.0,29.98,South,174,2.0,9.0,85,0.00,,,0.00,0,WxPro DR1,2013-01-13 00:17:00,
2013-01-12 19:22:00,54.5,49.8,29.98,South,183,1.0,13.0,84,0.00,,,0.00,0,WxPro DR1,2013-01-13 00:22:00,
2013-01-12 19:27:00,54.6,49.9,29.98,South,171,1.0,13.0,84,0.00,,,0.00,0,WxPro DR1,2013-01-13 00:27:00,
2013-01-12 19:32:00,54.5,49.8,29.98,South,183,1.0,7.0,84,0.00,,,0.00,0,WxPro DR1,2013-01-13 00:32:00,
2013-01-12 19:37:00,54.4,50.0,29.98,South,183,1.0,7.0,85,0.00,,,0.00,0,WxPro DR1,2013-01-13 00:37:00,
2013-01-12 19:42:00,54.4,50.0,29.98,South,176,1.0,7.0,85,0.00,,,0.00,0,WxPro DR1,2013-01-13 00:42:00,
2013-01-12 19:47:00,54.4,50.0,29.97,South,180,2.0,7.0,85,0.00,,,0.00,0,WxPro DR1,2013-01-13 00:47:00,
2013-01-12 19:52:00,54.4,50.0,29.97,South,176,6.0,9.0,85,0.00,,,0.00,0,WxPro DR1,2013-01-13 00:52:00,
2013-01-12 19:57:00,54.4,50.0,29.97,SSW,205,1.0,9.0,85,0.00,,,0.00,0,WxPro DR1,2013-01-13 00:57:00,
2013-01-12 20:02:00,54.4,50.0,29.97,SSW,194,1.0,10.0,85,0.00,,,0.00,0,WxPro DR1,2013-01-13 01:02:00,
2013-01-12 20:07:00,54.3,49.9,29.97,SSW,200,0.0,10.0,85,0.00,,,0.00,0,WxPro DR1,2013-01-13 01:07:00,
2013-01-12 20:12:00,54.2,49.8,29.98,SSE,161,1.0,9.0,85,0.00,,,0.00,0,WxPro DR1,2013-01-13 01:12:00,
2013-01-12 20:17:00,54.2,49.9,29.98,SSE,163,2.0,9.0,85,0.00,,,0.00,0,WxPro DR1,2013-01-13 01:17:00,
2013-01-12 20:22:00,54.3,50.1,29.98,WSW,241,4.0,7.0,86,0.00,,,0.00,0,WxPro DR1,2013-01-13 01:22:00,
2013-01-12 20:27:00,54.3,50.2,29.98,South,181,2.0,7.0,86,0.00,,,0.00,0,WxPro DR1,2013-01-13 01:27:00,
2013-01-12 20:32:00,54.3,50.2,29.98,South,186,4.0,11.0,86,0.00,,,0.00,0,WxPro DR1,2013-01-13 01:32:00,
2013-01-12 20:37:00,54.5,50.1,29.98,SSW,203,1.0,11.0,85,0.00,,,0.00,0,WxPro DR1,2013-01-13 01:37:00,
2013-01-12 20:42:00,54.5,50.4,29.97,SSE,153,2.0,9.0,86,0.00,,,0.00,0,WxPro DR1,2013-01-13 01:42:00,
2013-01-12 20:47:00,54.6,50.5,29.97,South,187,7.0,11.0,86,0.00,,,0.00,0,WxPro DR1,2013-01-13 01:47:00,
2013-01-12 20:52:00,54.8,50.3,29.97,SSE,168,4.0,11.0,85,0.00,,,0.00,0,WxPro DR1,2013-01-13 01:52:00,
2013-01-12 20:57:00,54.7,50.3,29.97,South,179,5.0,11.0,85,0.00,,,0.00,0,WxPro DR1,2013-01-13 01:57:00,
2013-01-12 21:02:00,54.6,50.5,29.98,SSE,163,6.0,11.0,86,0.00,,,0.00,0,WxPro DR1,2013-01-13 02:02:00,
2013-01-12 21:07:00,54.5,50.4,29.98,South,178,6.0,11.0,86,0.00,,,0.00,0,WxPro DR1,2013-01-13 02:07:00,
2013-01-12 21:12:00,54.6,50.5,29.97,South,176,5.0,11.0,86,0.00,,,0.00,0,WxPro DR1,2013-01-13 02:12:00,
2013-01-12 21:17:00,54.6,50.5,29.97,SSW,192,5.0,12.0,86,0.00,,,0.00,0,WxPro DR1,2013-01-13 02:17:00,
2013-01-12 21:22:00,54.7,50.6,29.96,SSW,201,3.0,14.0,86,0.00,,,0.00,0,WxPro DR1,2013-01-13 02:22:00,
2013-01-12 21:27:00,54.6,50.5,29.96,SSW,195,1.0,15.0,86,0.00,,,0.00,0,WxPro DR1,2013-01-13 02:27:00,
2013-01-12 21:32:00,54.6,50.5,29.97,SSW,196,3.0,15.0,86,0.00,,,0.00,0,WxPro DR1,2013-01-13 02:32:00,
2013-01-12 21:37:00,54.5,50.4,29.97,SSE,160,3.0,10.0,86,0.00,,,0.00,0,WxPro DR1,2013-01-13 02:37:00,
2013-01-12 21:42:00,54.4,50.3,29.97,SSE,157,0.0,9.0,86,0.00,,,0.00,0,WxPro DR1,2013-01-13 02:42:00,
2013-01-12 21:47:00,54.3,50.5,29.97,SSE,163,2.0,9.0,87,0.00,,,0.00,0,WxPro DR1,2013-01-13 02:47:00,
2013-01-12 21:52:00,54.3,50.5,29.98,SSE,157,4.0,9.0,87,0.00,,,0.00,0,WxPro DR1,2013-01-13 02:52:00,
2013-01-12 21:57:00,54.3,50.5,29.97,South,175,2.0,10.0,87,0.00,,,0.00,0,WxPro DR1,2013-01-13 02:57:00,
2013-01-12 22:02:00,54.2,50.5,29.96,SSW,198,2.0,10.0,87,0.00,,,0.00,0,WxPro DR1,2013-01-13 03:02:00,
2013-01-12 22:07:00,54.2,50.4,29.95,SSE,165,0.0,10.0,87,0.00,,,0.00,0,WxPro DR1,2013-01-13 03:07:00,
2013-01-12 22:12:00,54.2,50.4,29.95,South,183,5.0,7.0,87,0.00,,,0.00,0,WxPro DR1,2013-01-13 03:12:00,
2013-01-12 22:17:00,54.2,50.7,29.96,South,190,7.0,13.0,88,0.00,,,0.00,0,WxPro DR1,2013-01-13 03:17:00,
2013-01-12 22:22:00,54.2,50.8,29.96,South,169,4.0,13.0,88,0.00,,,0.00,0,WxPro DR1,2013-01-13 03:22:00,
2013-01-12 22:27:00,54.3,50.8,29.96,South,178,3.0,12.0,88,0.00,,,0.00,0,WxPro DR1,2013-01-13 03:27:00,
2013-01-12 22:32:00,54.2,50.7,29.97,South,191,6.0,12.0,88,0.00,,,0.00,0,WxPro DR1,2013-01-13 03:32:00,
2013-01-12 22:37:00,54.2,50.7,29.97,South,180,4.0,10.0,88,0.00,,,0.00,0,WxPro DR1,2013-01-13 03:37:00,
2013-01-12 22:42:00,54.3,50.8,29.97,SSE,159,3.0,13.0,88,0.00,,,0.00,0,WxPro DR1,2013-01-13 03:42:00,
2013-01-12 22:47:00,54.3,50.8,29.96,SSE,157,3.0,13.0,88,0.00,,,0.00,0,WxPro DR1,2013-01-13 03:47:00,
2013-01-12 22:52:00,54.2,50.7,29.97,SSE,163,2.0,11.0,88,0.00,,,0.00,0,WxPro DR1,2013-01-13 03:52:00,
2013-01-12 22:57:00,54.0,50.6,29.96,SSE,165,3.0,11.0,88,0.00,,,0.00,0,WxPro DR1,2013-01-13 03:57:00,
2013-01-12 23:02:00,53.9,50.4,29.96,SSE,166,1.0,6.0,88,0.00,,,0.00,0,WxPro DR1,2013-01-13 04:02:00,
2013-01-12 23:07:00,53.7,50.2,29.96,South,170,2.0,6.0,88,0.00,,,0.00,0,WxPro DR1,2013-01-13 04:07:00,
2013-01-12 23:12:00,53.5,50.3,29.95,South,169,0.0,6.0,89,0.00,,,0.00,0,WxPro DR1,2013-01-13 04:12:00,
2013-01-12 23:17:00,53.3,50.1,29.95,SE,140,2.0,5.0,89,0.00,,,0.00,0,WxPro DR1,2013-01-13 04:17:00,
2013-01-12 23:22:00,53.2,50.0,29.96,South,174,4.0,6.0,89,0.00,,,0.00,0,WxPro DR1,2013-01-13 04:22:00,
2013-01-12 23:27:00,53.3,50.2,29.96,South,189,7.0,10.0,89,0.00,,,0.00,0,WxPro DR1,2013-01-13 04:27:00,
2013-01-12 23:32:00,53.5,50.3,29.96,South,169,1.0,10.0,89,0.00,,,0.00,0,WxPro DR1,2013-01-13 04:32:00,
2013-01-12 23:37:00,53.7,50.5,29.95,South,169,1.0,11.0,89,0.00,,,0.00,0,WxPro DR1,2013-01-13 04:37:00,
2013-01-12 23:42:00,53.8,50.6,29.95,South,175,1.0,11.0,89,0.00,,,0.00,0,WxPro DR1,2013-01-13 04:42:00,
2013-01-12 23:47:00,53.7,50.2,29.95,SSE,149,1.0,10.0,88,0.00,,,0.00,0,WxPro DR1,2013-01-13 04:47:00,
2013-01-12 23:52:00,53.1,49.7,29.95,SSE,150,1.0,4.0,88,0.00,,,0.00,0,WxPro DR1,2013-01-13 04:52:00,
2013-01-12 23:57:00,52.9,49.7,29.95,SSE,158,0.0,5.0,89,0.00,,,0.00,0,WxPro DR1,2013-01-13 04:57:00,